Licenciado Gustavo Díaz Ordaz International Airport
MMPR : now visible

Airfield :











YOU CAN JOIN US ON...

 
LOGIN :

Register | Disclaimer

   EN    FR    IT 

 









Legend :    VFR   Marginal VFR   IFR   Intensive IFR   Very Intensive IFR
Visi :
Ceiling :
>= 8 km
>= 3000ft
5 to 8 km
1000 to 3000 ft
1500m to 5 km
500 to 1000 ft
800 to 1500m
200 to 500 ft
< 800m
< 200 ft
Symbols :   Thunderstorms  Fog  Heavy snow  Heavy precipitations  Wind > 20 kt






- Airport Elevation : 23 ft
- IATA code : PVR


MMPR - Licenciado Gustavo Díaz Ordaz International

CURRENT METAR :
  • 101844Z 21012KT 15SM SCT290 26/21 A2989 RMK 8/001 CU

EXPIRED METARs :
  • 101742Z 22010KT 15SM SKC 26/21 A2990 RMK SLP124 52027 902 CUCI
  • 101652Z 23008KT 15SM SKC 27/21 A2991 RMK CUCI

TAF TAF MMPR
Valid from the 10 at 18:00 until the 12 at 00:00 UTC


101638Z 1018/1124 23005KT P6SM SKC TX28/1021Z TN20/1113Z
BECMG 1020/1021 25012KT SCT250
FM110200 05005KT P6SM SCT020 SCT250
BECMG 1105/1106 00000KT SCT250
FM111800 23005KT P6SM SCT250
BECMG 1120/1121 25012KT
MMFR FIR / North America



MET'MAP, your aeronautical weather chart ! - Copyright ORBIFLY December 2007 - Disclaimer

ORBIFLY MET'MAP TEAM :

Programming & Development : Alexandra Zaïnal
Concept & original design : Baudouin d'Aumeries
Assistance for programming : Marc-Olivier Méhu
Technical & hardware support : Manuel Goepfert

Contact : metmap@orbifly.com




SOURCES & CREDITS :

   NOAA       Earth
Advisory